Regional Weather Roundup
Issued by NWS

Home | Current Version | Previous Version | Graphics & Text | Print | Product List | Glossary On
Versions: 1 2 3 4 5 6 7 8 9 10 11 12 13 14 15 16 17 18 19 20 21 22 23 24 25 26 27 28 29 30 31 32 33 34 35 36 37 38 39 40 41 42 43 44 45 46 47 48 49 50
000
ASUS43 KDTX 061101
RWRMI
MICHIGAN HOURLY REGIONAL WEATHER ROUNDUP
NATIONAL WEATHER SERVICE DETROIT/PONTIAC MI
700 AM EDT WED MAY 06 2015

NOTE: "FAIR" INDICATES FEW OR NO CLOUDS BELOW 12,000 FEET WITH NO
SIGNIFICANT WEATHER AND/OR OBSTRUCTION TO VISIBILITY.

MIZ047>049-052>055-059>063-066>070-074>076-081>083-061200-
SOUTHEAST LOWER MICHIGAN

CITY           SKY/WX    TMP DP  RH WIND       PRES   REMARKS
ADRIAN         FOG       51  51 100 E10       30.24S VSB<1/4
ALMA           CLOUDY    51  48  91 E5        30.26S
ANN ARBOR      CLOUDY    51  49  92 E5        30.25R FOG
BAD AXE        CLOUDY    40  38  94 CALM      30.28F
CARO           CLOUDY    46  45  97 CALM      30.27S FOG
DETROIT CITY   CLOUDY    50  47  89 NE3       30.26S
DETROIT        CLOUDY    53  50  89 N5        30.25S FOG
FLINT          LGT RAIN  53  46  77 E3        30.26S
GROSSE ILE     CLOUDY    52  48  87 NE6       30.24S FOG
HILLSDALE      FOG       52  52 100 E6        30.22F VSB<1/4
HOWELL         CLOUDY    51  50  97 E5        30.25R FOG

CITY           SKY/WX    TMP DP  RH WIND       PRES   REMARKS
JACKSON        CLOUDY    51  51 100 E7        30.23S FOG
LAMBERTVILLE   FOG       52  50  93 E5        30.25R VSB 1/4
LANSING        CLOUDY    52  50  93 E6        30.25R FOG
LAPEER         NOT AVBL
MASON          CLOUDY    51  49  94 E5        30.25R FOG
MONROE         CLOUDY    52  52 100 CALM      30.24R FOG
PONTIAC        CLOUDY    50  45  83 E3        30.25R
PORT HOPE        N/A     41  39  93 CALM      30.27R
PORT HURON     CLOUDY    45  43  93 CALM      30.27S
TRI CITIES     CLOUDY    49  47  93 E3        30.27S FOG
MIDLAND        MOCLDY    47  46  95 CALM      30.26S
TROY           CLOUDY    51  47  86 NE3       30.28R
SAGINAW HB     CLOUDY    46  46 100 CALM      30.26S
$$
MIZ043>046-050>051-056>058-064>065-071>073-077>080-061200-
SOUTHWEST LOWER MICHIGAN

CITY           SKY/WX    TMP DP  RH WIND       PRES   REMARKS
BATTLE CREEK   FOG       52  51  97 E5        30.23S VSB 1/4
BENTON HARBOR  FOG       53  53 100 E8        30.18F VSB 1
BIG RAPIDS     CLOUDY    50  45  84 CALM      30.24R
COLDWATER      FOG       52  52  99 E6        30.21F VSB 1/4
FREMONT        CLOUDY    51  49  92 E6        30.21S
HOLLAND        FOG       53  51  93 E10       30.21S VSB 1/2
GRAND RAPIDS   CLOUDY    53  50  89 E9        30.22F FOG
IONIA          CLOUDY    52  49  88 E5        30.23S
KALAMAZOO      FOG       52  50  93 E3        30.23R VSB 1/4
LUDINGTON      CLOUDY    52  46  78 E5        30.22S
MARSHALL       FOG       51  50  99 CALM      30.23S VSB 1/4
MOUNT PLEASANT CLOUDY    47  46  93 E5        30.24F
MUSKEGON       CLOUDY    54  50  86 E9        30.21S FOG
SOUTH HAVEN    FOG       53  51  95 SE6       30.20S VSB 1/2
$$
MIZ016>042-061200-
NORTHERN LOWER MICHIGAN

CITY           SKY/WX    TMP DP  RH WIND       PRES   REMARKS
ALPENA         MOCLDY    33  32  96 CALM      30.29R
BEAVER ISLAND  MOCLDY    47  38  71 SE3       30.25R
BELLAIRE       MOCLDY    41  37  87 CALM      30.25S
CADILLAC       CLOUDY    48  41  76 SE5       30.23S
CHARLEVOIX     MOCLDY    45  37  73 SE3       30.27S
FRANKFORT      MOCLDY    46  36  69 CALM      30.23R
GAYLORD        MOCLDY    45  40  82 CALM      30.26S
GRAYLING       MOCLDY    33  31  92 CALM      30.27S
HARBOR SPRINGS MOCLDY    43  39  88 NE7       30.25F
HOUGHTON LAKE  CLOUDY    42  40  92 E5        30.26S
MANISTEE       MOCLDY    48  37  66 E5        30.23S
OSCODA         FOG       36  36 100 CALM      30.28S VSB<1/4
PELLSTON       PTCLDY    35  31  85 CALM      30.26F
ROGERS CITY    PTCLDY    45  44  95 CALM      30.28F
TRAVERSE CITY  MOCLDY    40  35  83 CALM      30.24R
$$
MIZ007>008-015-061200-
EASTERN UPPER MICHIGAN

CITY           SKY/WX    TMP DP  RH WIND       PRES   REMARKS
KINROSS        CLEAR     39  34  81 CALM      30.27S
MACKINAC ISLAN CLEAR     44  37  78 SE6       30.26S
NEWBERRY       CLEAR     42  30  62 S3        30.25R
S. S. MARIE    CLEAR     40  31  70 NE6       30.27S
MUNISING         N/A     46  31  55 SW6       30.22S
$$
MIZ004>006-011>014-085-061200-
CENTRAL UPPER MICHIGAN

CITY           SKY/WX    TMP DP  RH WIND       PRES   REMARKS
MANISTIQUE     PTCLDY    46  34  63 SE7       30.24S
ESCANABA       MOCLDY    39  36  87 CALM      30.22S
MENOMINEE      CLOUDY    48  37  66 CALM      30.22S
SAWYER-GWINN   CLEAR     34  28  80 CALM      30.22S
$$
MIZ001>003-009>011-084-061200-
WESTERN UPPER MICHIGAN

CITY           SKY/WX    TMP DP  RH WIND       PRES   REMARKS
IRON MOUNTAIN  MOCLDY    40  35  83 CALM      30.21S
HOUGHTON       PTCLDY    38  29  70 E3        30.19S
COPPER HARBOR    N/A     52  26  36 VRB3      30.20R
IRONWOOD       CLOUDY    54  28  37 SE6       30.14S
$$

ABBREVIATIONS USED IN REMARKS
   TC - TEMPERATURE IN CELSIUS
  WCI - WIND CHILL INDEX
   HX - HEAT INDEX
  VSB - VISIBILITY



USA.gov is the U.S. government's official web portal to all federal, state and local government web resources and services.